Time,TemperatureF,DewpointF,PressureIn,WindDirection,WindDirectionDegrees,WindSpeedMPH,WindSpeedGustMPH,Humidity,HourlyPrecipIn,Conditions,Clouds,dailyrainin,SoftwareType,DateUTC
2013-06-12 00:14:00,77.5,68.9,29.55,North,-999,3.2,-999.0,75,-99.99,,,-99.99,Acu-Link.com,2013-06-12 05:14:00,
2013-06-12 00:29:00,77.5,68.9,29.55,North,-999,0.0,-999.0,75,-99.99,,,-99.99,Acu-Link.com,2013-06-12 05:29:00,
2013-06-12 00:45:00,77.4,68.4,29.53,North,-999,4.8,-999.0,74,-99.99,,,-99.99,Acu-Link.com,2013-06-12 05:45:00,
2013-06-12 01:16:00,78.1,67.9,29.52,North,-999,4.8,-999.0,71,-99.99,,,-99.99,Acu-Link.com,2013-06-12 06:16:00,
2013-06-12 01:31:00,78.1,67.9,29.53,North,-999,11.2,-999.0,71,-99.99,,,-99.99,Acu-Link.com,2013-06-12 06:31:00,
2013-06-12 01:47:00,77.8,68.4,29.59,North,-999,0.0,-999.0,73,-99.99,,,-99.99,Acu-Link.com,2013-06-12 06:47:00,
2013-06-12 02:02:00,77.9,68.1,29.59,North,-999,1.6,-999.0,72,-99.99,,,-99.99,Acu-Link.com,2013-06-12 07:02:00,
2013-06-12 02:17:00,78.2,68.0,29.58,North,-999,1.6,-999.0,71,-99.99,,,-99.99,Acu-Link.com,2013-06-12 07:17:00,
2013-06-12 02:33:00,77.7,68.7,29.58,North,-999,0.0,-999.0,74,-99.99,,,-99.99,Acu-Link.com,2013-06-12 07:33:00,
2013-06-12 02:48:00,76.3,68.2,29.57,North,-999,1.6,-999.0,76,-99.99,,,-99.99,Acu-Link.com,2013-06-12 07:48:00,
2013-06-12 03:03:00,75.2,68.6,29.59,North,-999,0.0,-999.0,80,-99.99,,,-99.99,Acu-Link.com,2013-06-12 08:03:00,
2013-06-12 03:19:00,74.8,68.2,29.60,North,-999,0.0,-999.0,80,-99.99,,,-99.99,Acu-Link.com,2013-06-12 08:19:00,
2013-06-12 03:34:00,72.9,68.5,29.60,North,-999,0.0,-999.0,86,-99.99,,,-99.99,Acu-Link.com,2013-06-12 08:34:00,
2013-06-12 03:49:00,71.6,69.5,29.59,North,-999,0.0,-999.0,93,-99.99,,,-99.99,Acu-Link.com,2013-06-12 08:49:00,
2013-06-12 04:04:00,70.3,69.7,29.58,North,-999,0.0,-999.0,98,-99.99,,,-99.99,Acu-Link.com,2013-06-12 09:04:00,
2013-06-12 04:19:00,69.5,69.2,29.58,North,-999,0.0,-999.0,99,-99.99,,,-99.99,Acu-Link.com,2013-06-12 09:19:00,
2013-06-12 04:35:00,69.0,68.7,29.57,North,-999,0.0,-999.0,99,-99.99,,,-99.99,Acu-Link.com,2013-06-12 09:35:00,
2013-06-12 04:50:00,68.5,68.2,29.57,North,-999,0.0,-999.0,99,-99.99,,,-99.99,Acu-Link.com,2013-06-12 09:50:00,
2013-06-12 05:05:00,67.7,67.4,29.56,North,-999,0.0,-999.0,99,-99.99,,,-99.99,Acu-Link.com,2013-06-12 10:05:00,
2013-06-12 05:21:00,66.9,66.6,29.57,North,-999,0.0,-999.0,99,-99.99,,,-99.99,Acu-Link.com,2013-06-12 10:21:00,
2013-06-12 05:36:00,66.6,66.3,29.56,North,-999,0.0,-999.0,99,-99.99,,,-99.99,Acu-Link.com,2013-06-12 10:36:00,
2013-06-12 05:51:00,67.6,67.3,29.56,North,-999,0.0,-999.0,99,-99.99,,,-99.99,Acu-Link.com,2013-06-12 10:51:00,
2013-06-12 06:07:00,68.7,68.4,29.55,North,-999,0.0,-999.0,99,-99.99,,,-99.99,Acu-Link.com,2013-06-12 11:07:00,
2013-06-12 06:22:00,70.5,69.9,29.56,North,-999,0.0,-999.0,98,-99.99,,,-99.99,Acu-Link.com,2013-06-12 11:22:00,
2013-06-12 06:37:00,71.2,70.6,29.56,North,-999,0.0,-999.0,98,-99.99,,,-99.99,Acu-Link.com,2013-06-12 11:37:00,
2013-06-12 06:53:00,73.2,71.4,29.57,North,-999,0.0,-999.0,94,-99.99,,,-99.99,Acu-Link.com,2013-06-12 11:53:00,
2013-06-12 07:08:00,75.0,71.5,29.58,North,-999,1.6,-999.0,89,-99.99,,,-99.99,Acu-Link.com,2013-06-12 12:08:00,
2013-06-12 07:23:00,78.1,73.6,29.60,North,-999,0.0,-999.0,86,-99.99,,,-99.99,Acu-Link.com,2013-06-12 12:23:00,
2013-06-12 07:39:00,80.3,74.7,29.59,North,-999,0.0,-999.0,83,-99.99,,,-99.99,Acu-Link.com,2013-06-12 12:39:00,
2013-06-12 07:54:00,80.2,74.6,29.59,North,-999,0.0,-999.0,83,-99.99,,,-99.99,Acu-Link.com,2013-06-12 12:54:00,
2013-06-12 08:09:00,80.8,75.5,29.61,North,-999,0.0,-999.0,84,-99.99,,,-99.99,Acu-Link.com,2013-06-12 13:09:00,
2013-06-12 08:25:00,79.3,73.7,29.62,North,-999,0.0,-999.0,83,-99.99,,,-99.99,Acu-Link.com,2013-06-12 13:25:00,
2013-06-12 08:40:00,80.2,74.6,29.62,North,-999,0.0,-999.0,83,-99.99,,,-99.99,Acu-Link.com,2013-06-12 13:40:00,
2013-06-12 08:55:00,80.2,73.8,29.63,North,-999,1.6,-999.0,81,-99.99,,,-99.99,Acu-Link.com,2013-06-12 13:55:00,
2013-06-12 09:10:00,80.2,73.8,29.63,North,-999,6.4,-999.0,81,-99.99,,,-99.99,Acu-Link.com,2013-06-12 14:10:00,
2013-06-12 09:26:00,80.8,74.4,29.63,North,-999,3.2,-999.0,81,-99.99,,,-99.99,Acu-Link.com,2013-06-12 14:26:00,
2013-06-12 09:41:00,80.9,74.5,29.63,North,-999,1.6,-999.0,81,-99.99,,,-99.99,Acu-Link.com,2013-06-12 14:41:00,
2013-06-12 09:57:00,81.9,75.1,29.62,North,-999,9.6,-999.0,80,-99.99,,,-99.99,Acu-Link.com,2013-06-12 14:57:00,
2013-06-12 10:12:00,82.7,74.7,29.63,North,-999,4.8,-999.0,77,-99.99,,,-99.99,Acu-Link.com,2013-06-12 15:12:00,
2013-06-12 10:27:00,82.9,74.1,29.64,North,-999,6.4,-999.0,75,-99.99,,,-99.99,Acu-Link.com,2013-06-12 15:27:00,
2013-06-12 10:43:00,84.1,74.5,29.64,North,-999,8.0,-999.0,73,-99.99,,,-99.99,Acu-Link.com,2013-06-12 15:43:00,
2013-06-12 10:58:00,86.6,75.2,29.64,North,-999,1.6,-999.0,69,-99.99,,,-99.99,Acu-Link.com,2013-06-12 15:58:00,
2013-06-12 11:13:00,88.1,76.2,29.64,North,-999,0.0,-999.0,68,-99.99,,,-99.99,Acu-Link.com,2013-06-12 16:13:00,
2013-06-12 11:28:00,88.1,77.1,29.65,North,-999,3.2,-999.0,70,-99.99,,,-99.99,Acu-Link.com,2013-06-12 16:28:00,
2013-06-12 11:44:00,88.3,75.9,29.66,North,-999,3.2,-999.0,67,-99.99,,,-99.99,Acu-Link.com,2013-06-12 16:44:00,
2013-06-12 11:59:00,88.9,77.8,29.67,North,-999,0.0,-999.0,70,-99.99,,,-99.99,Acu-Link.com,2013-06-12 16:59:00,
2013-06-12 12:14:00,88.1,76.2,29.67,North,-999,3.2,-999.0,68,-99.99,,,-99.99,Acu-Link.com,2013-06-12 17:14:00,
2013-06-12 12:29:00,88.8,76.4,29.68,North,-999,6.4,-999.0,67,-99.99,,,-99.99,Acu-Link.com,2013-06-12 17:29:00,
2013-06-12 12:45:00,87.5,74.7,29.69,North,-999,1.6,-999.0,66,-99.99,,,-99.99,Acu-Link.com,2013-06-12 17:45:00,
2013-06-12 13:00:00,86.6,71.5,29.69,North,-999,8.0,-999.0,61,-99.99,,,-99.99,Acu-Link.com,2013-06-12 18:00:00,
2013-06-12 13:16:00,87.6,73.4,29.70,North,-999,4.8,-999.0,63,-99.99,,,-99.99,Acu-Link.com,2013-06-12 18:16:00,
2013-06-12 13:31:00,87.6,71.5,29.70,North,-999,6.4,-999.0,59,-99.99,,,-99.99,Acu-Link.com,2013-06-12 18:31:00,
2013-06-12 13:46:00,87.4,72.3,29.71,North,-999,3.2,-999.0,61,-99.99,,,-99.99,Acu-Link.com,2013-06-12 18:46:00,
2013-06-12 14:01:00,87.9,72.2,29.71,North,-999,6.4,-999.0,60,-99.99,,,-99.99,Acu-Link.com,2013-06-12 19:01:00,
2013-06-12 14:16:00,88.0,69.2,29.71,North,-999,4.8,-999.0,54,-99.99,,,-99.99,Acu-Link.com,2013-06-12 19:16:00,
2013-06-12 14:32:00,88.3,69.5,29.72,North,-999,4.8,-999.0,54,-99.99,,,-99.99,Acu-Link.com,2013-06-12 19:32:00,
2013-06-12 14:47:00,88.5,70.2,29.72,North,-999,3.2,-999.0,55,-99.99,,,-99.99,Acu-Link.com,2013-06-12 19:47:00,
2013-06-12 15:02:00,86.9,67.1,29.73,North,-999,6.4,-999.0,52,-99.99,,,-99.99,Acu-Link.com,2013-06-12 20:02:00,
2013-06-12 15:18:00,87.5,68.8,29.73,North,-999,4.8,-999.0,54,-99.99,,,-99.99,Acu-Link.com,2013-06-12 20:18:00,
2013-06-12 15:33:00,86.1,69.6,29.73,North,-999,11.2,-999.0,58,-99.99,,,-99.99,Acu-Link.com,2013-06-12 20:33:00,
2013-06-12 15:48:00,86.8,69.2,29.74,North,-999,9.6,-999.0,56,-99.99,,,-99.99,Acu-Link.com,2013-06-12 20:48:00,
2013-06-12 16:04:00,86.2,66.5,29.74,North,-999,8.0,-999.0,52,-99.99,,,-99.99,Acu-Link.com,2013-06-12 21:04:00,
2013-06-12 16:19:00,85.8,69.8,29.75,North,-999,3.2,-999.0,59,-99.99,,,-99.99,Acu-Link.com,2013-06-12 21:19:00,
2013-06-12 16:34:00,85.6,67.0,29.76,North,-999,3.2,-999.0,54,-99.99,,,-99.99,Acu-Link.com,2013-06-12 21:34:00,
2013-06-12 16:49:00,85.0,69.0,29.76,North,-999,1.6,-999.0,59,-99.99,,,-99.99,Acu-Link.com,2013-06-12 21:49:00,
2013-06-12 17:05:00,85.1,65.5,29.77,North,-999,1.6,-999.0,52,-99.99,,,-99.99,Acu-Link.com,2013-06-12 22:05:00,
2013-06-12 17:20:00,83.6,64.6,29.77,North,-999,3.2,-999.0,53,-99.99,,,-99.99,Acu-Link.com,2013-06-12 22:20:00,
2013-06-12 17:35:00,83.7,64.7,29.77,North,-999,4.8,-999.0,53,-99.99,,,-99.99,Acu-Link.com,2013-06-12 22:35:00,
2013-06-12 17:51:00,82.9,64.5,29.78,North,-999,3.2,-999.0,54,-99.99,,,-99.99,Acu-Link.com,2013-06-12 22:51:00,
2013-06-12 18:06:00,81.9,64.6,29.78,North,-999,4.8,-999.0,56,-99.99,,,-99.99,Acu-Link.com,2013-06-12 23:06:00,
2013-06-12 18:21:00,81.1,63.4,29.79,North,-999,8.0,-999.0,55,-99.99,,,-99.99,Acu-Link.com,2013-06-12 23:21:00,
2013-06-12 18:36:00,79.9,62.8,29.79,North,-999,11.2,-999.0,56,-99.99,,,-99.99,Acu-Link.com,2013-06-12 23:36:00,
2013-06-12 18:52:00,79.1,63.0,29.80,North,-999,4.8,-999.0,58,-99.99,,,-99.99,Acu-Link.com,2013-06-12 23:52:00,
2013-06-12 19:07:00,77.1,61.6,29.81,North,-999,6.4,-999.0,59,-99.99,,,-99.99,Acu-Link.com,2013-06-13 00:07:00,
2013-06-12 19:23:00,75.4,60.1,29.82,North,-999,4.8,-999.0,59,-99.99,,,-99.99,Acu-Link.com,2013-06-13 00:23:00,
2013-06-12 19:38:00,73.9,60.0,29.83,North,-999,4.8,-999.0,62,-99.99,,,-99.99,Acu-Link.com,2013-06-13 00:38:00,
2013-06-12 19:53:00,72.6,58.4,29.84,North,-999,0.0,-999.0,61,-99.99,,,-99.99,Acu-Link.com,2013-06-13 00:53:00,
2013-06-12 20:09:00,70.5,58.2,29.85,North,-999,3.2,-999.0,65,-99.99,,,-99.99,Acu-Link.com,2013-06-13 01:09:00,
2013-06-12 20:24:00,69.7,57.8,29.86,North,-999,6.4,-999.0,66,-99.99,,,-99.99,Acu-Link.com,2013-06-13 01:24:00,
2013-06-12 20:39:00,68.8,57.4,29.87,North,-999,0.0,-999.0,67,-99.99,,,-99.99,Acu-Link.com,2013-06-13 01:39:00,
2013-06-12 20:54:00,67.8,57.7,29.88,North,-999,0.0,-999.0,70,-99.99,,,-99.99,Acu-Link.com,2013-06-13 01:54:00,
2013-06-12 21:10:00,66.8,58.2,29.88,North,-999,1.6,-999.0,74,-99.99,,,-99.99,Acu-Link.com,2013-06-13 02:10:00,
2013-06-12 21:25:00,65.8,58.0,29.89,North,-999,0.0,-999.0,76,-99.99,,,-99.99,Acu-Link.com,2013-06-13 02:25:00,
2013-06-12 21:41:00,65.5,57.7,29.90,North,-999,1.6,-999.0,76,-99.99,,,-99.99,Acu-Link.com,2013-06-13 02:41:00,
2013-06-12 21:57:00,64.9,57.9,29.90,North,-999,0.0,-999.0,78,-99.99,,,-99.99,Acu-Link.com,2013-06-13 02:57:00,
2013-06-12 22:12:00,64.0,57.7,29.91,North,-999,4.8,-999.0,80,-99.99,,,-99.99,Acu-Link.com,2013-06-13 03:12:00,
2013-06-12 22:28:00,63.6,58.0,29.92,North,-999,0.0,-999.0,82,-99.99,,,-99.99,Acu-Link.com,2013-06-13 03:28:00,
2013-06-12 22:43:00,63.2,57.6,29.93,North,-999,0.0,-999.0,82,-99.99,,,-99.99,Acu-Link.com,2013-06-13 03:43:00,
2013-06-12 22:58:00,62.5,57.9,29.94,North,-999,0.0,-999.0,85,-99.99,,,-99.99,Acu-Link.com,2013-06-13 03:58:00,
2013-06-12 23:13:00,61.9,57.7,29.94,North,-999,0.0,-999.0,86,-99.99,,,-99.99,Acu-Link.com,2013-06-13 04:13:00,
2013-06-12 23:29:00,61.1,57.5,29.95,North,-999,4.8,-999.0,88,-99.99,,,-99.99,Acu-Link.com,2013-06-13 04:29:00,
2013-06-12 23:44:00,60.6,57.0,29.95,North,-999,0.0,-999.0,88,-99.99,,,-99.99,Acu-Link.com,2013-06-13 04:44:00,
2013-06-12 23:59:00,60.0,56.7,29.95,North,-999,0.0,-999.0,89,-99.99,,,-99.99,Acu-Link.com,2013-06-13 04:59:00,